GW0720 Weather Reports


time (UTC)temp
C
wind
direction
speed
KPH
gust
KPH
rain 1hr
cm
rain 24hr
cm
rain mn
cm
humidity
%
barometer
mb
20260906123056 21 238 0.0 4.8 0.00 1.42 0.00 88 1015.2
20260906121601 21 0 0.0 6.4 0.00 1.42 0.00 89 1015.1
20260906120057 21 0 0.0 0.0 0.00 1.42 0.00 92 1014.7
20260906114552 21 0 0.0 3.2 0.00 1.42 0.00 91 1014.7
20260906113104 21 0 0.0 0.0 0.00 1.42 0.00 93 1014.4
20260906111557 21 0 0.0 0.0 0.00 1.42 0.00 93 1014.3
20260906110058 21 0 0.0 1.6 0.00 1.42 0.00 93 1014.1
20260906104555 21 0 0.0 1.6 0.00 1.42 0.00 94 1014.0
20260906103102 21 0 0.0 3.2 0.00 1.42 0.00 94 1013.8
20260906101601 21 0 0.0 0.0 0.00 1.42 0.00 94 1013.6
20260906100058 21 0 0.0 1.6 0.00 1.42 0.00 94 1013.3
20260906094610 21 0 0.0 3.2 0.00 1.42 0.00 94 1013.1
20260906093112 21 0 0.0 1.6 0.00 1.42 0.00 95 1013.1
20260906091603 21 0 0.0 3.2 0.00 1.42 0.00 95 1013.0
20260906090139 21 245 0.0 4.8 0.00 1.42 0.00 95 1012.9
20260906084634 22 0 0.0 3.2 0.00 1.42 0.00 95 1012.8
20260906083104 22 0 0.0 0.0 0.00 1.42 0.00 96 1012.9
20260906081600 22 0 0.0 0.0 0.00 1.42 0.00 96 1012.8
20260906080110 22 0 0.0 0.0 0.00 1.42 0.00 96 1012.8
20260906074604 22 0 0.0 0.0 0.00 1.42 0.00 96 1012.7
20260906073056 22 0 0.0 1.6 0.00 1.42 0.00 96 1012.7
20260906071602 22 0 0.0 0.0 0.00 1.42 0.00 96 1012.5
20260906070103 22 0 0.0 1.6 0.00 1.42 0.00 96 1012.6
20260906064556 22 0 0.0 0.0 0.00 1.42 0.00 96 1012.4
20260906063056 22 0 0.0 0.0 0.00 1.42 0.00 96 1012.7
20260906061607 22 0 0.0 0.0 0.00 1.42 0.00 96 1012.7
20260906054609 22 0 0.0 1.6 0.00 1.42 0.00 96 1012.8
20260906053118 22 0 0.0 1.6 0.00 1.42 0.00 96 1012.8
20260906051601 22 0 0.0 1.6 0.00 1.42 0.00 96 1013.1
20260906050104 22 0 0.0 1.6 0.00 1.42 0.00 96 1013.0
20260906044621 22 0 0.0 1.6 0.00 1.42 0.00 96 1012.9
20260906043105 22 0 0.0 0.0 0.00 1.42 0.00 96 1013.0
20260906041608 21 0 0.0 0.0 0.00 1.42 0.00 96 1013.3
20260906040054 21 0 0.0 0.0 0.00 1.42 0.00 95 1013.1
20260906034600 21 0 0.0 0.0 0.00 1.42 1.42 95 1013.3
20260906033059 21 0 0.0 0.0 0.00 1.42 1.42 95 1013.0
20260906031557 22 0 0.0 0.0 0.00 1.42 1.42 94 1013.2
20260906030104 22 0 0.0 0.0 0.00 1.42 1.42 95 1013.1
20260906024622 22 0 0.0 0.0 0.00 1.42 1.42 94 1013.3
20260906023105 22 0 0.0 0.0 0.00 1.42 1.42 94 1013.3
20260906021600 22 0 0.0 0.0 0.00 1.42 1.42 94 1013.2
20260906020055 22 0 0.0 0.0 0.00 1.42 1.42 94 1013.2
20260906014559 23 0 0.0 0.0 0.00 1.42 1.42 94 1013.3
20260906013055 23 0 0.0 0.0 0.00 1.42 1.42 94 1013.1
20260906011559 23 0 0.0 0.0 0.00 1.42 1.42 94 1012.7
20260906010130 23 0 0.0 1.6 0.00 1.42 1.42 94 1012.4
20260906004601 23 0 0.0 0.0 0.00 1.42 1.42 93 1012.3
20260906003054 23 0 0.0 0.0 0.00 1.42 1.42 93 1012.2
20260906001604 23 0 0.0 0.0 0.00 1.42 1.42 93 1011.8
20260906000100 23 0 0.0 0.0 0.00 1.42 1.42 93 1011.6
20260905234558 23 0 0.0 0.0 0.00 1.47 1.42 93 1011.8
20260905233056 24 0 0.0 0.0 0.00 1.47 1.42 92 1011.4
20260905231600 24 0 0.0 0.0 0.00 1.47 1.42 92 1011.3
20260905230108 24 0 0.0 1.6 0.00 1.47 1.42 91 1011.8
20260905224601 24 0 0.0 0.0 0.00 1.68 1.42 91 1011.8
20260905223101 24 0 0.0 1.6 0.00 1.68 1.42 90 1011.8
20260905221557 24 0 0.0 1.6 0.00 1.68 1.42 90 1011.6
20260905220104 24 0 0.0 1.6 0.00 1.68 1.42 90 1011.5
20260905214557 24 0 0.0 4.8 0.00 1.78 1.42 90 1011.6
20260905213101 24 0 0.0 3.2 0.00 1.78 1.42 88 1011.7
20260905211605 24 0 0.0 3.2 0.00 1.78 1.42 89 1011.6
20260905210059 24 0 0.0 0.0 0.00 1.78 1.42 90 1011.7
20260905204553 24 0 0.0 3.2 0.00 1.78 1.42 91 1011.7
20260905203104 23 0 0.0 4.8 0.00 1.78 1.42 92 1011.6
20260905201608 23 0 0.0 1.6 0.00 1.78 1.42 94 1011.5
20260905200059 23 0 0.0 3.2 0.03 1.78 1.42 93 1011.6
20260905194555 23 0 0.0 3.2 0.03 1.78 1.42 94 1011.9
20260905193055 23 0 0.0 1.6 0.08 1.78 1.42 94 1011.9
20260905191601 23 0 0.0 1.6 0.08 1.78 1.42 94 1012.1
20260905190104 23 0 0.0 0.0 0.05 1.75 1.40 94 1012.7
20260905184612 23 0 0.0 0.0 0.05 1.75 1.40 93 1012.6
20260905183110 23 0 0.0 1.6 0.00 1.70 1.32 93 1012.6
20260905181601 23 0 0.0 3.2 0.03 1.70 1.32 92 1012.3
20260905180104 23 0 0.0 3.2 0.23 1.70 1.32 95 1012.6
20260905174605 23 0 0.0 3.2 0.53 1.70 1.32 94 1013.1
20260905173101 22 0 0.0 1.6 0.86 1.70 1.32 94 1013.1
20260905171559 22 0 0.0 3.2 1.12 1.68 1.32 93 1013.0
20260905170105 22 0 0.0 11.3 1.12 1.47 1.12 92 1013.8
20260905164605 23 292 1.6 8.0 0.81 1.17 0.81 91 1014.8
20260905163058 24 0 0.0 4.8 0.48 0.84 0.48 90 1014.5
20260905161602 25 0 0.0 1.6 0.20 0.56 0.20 87 1014.3
20260905160106 27 213 0.0 4.8 0.00 0.36 0.00 80 1013.7
20260905154605 28 54 0.0 0.0 0.00 0.36 0.00 79 1013.0
20260905153102 27 0 0.0 8.0 0.00 0.36 0.00 78 1013.2
20260905151602 28 0 1.6 11.3 0.00 0.36 0.00 76 1013.3
20260905144558 28 274 0.0 6.4 0.00 0.36 0.00 76 1013.3
20260905143104 27 0 0.0 3.2 0.00 0.36 0.00 85 1013.1
20260905141559 26 0 0.0 11.3 0.00 0.36 0.00 84 1013.2
20260905140107 24 0 0.0 6.4 0.00 0.36 0.00 91 1012.9
20260905134604 23 215 0.0 3.2 0.00 0.36 0.00 95 1012.7
20260905133100 23 0 0.0 4.8 0.00 0.36 0.00 97 1012.7
20260905131558 23 0 0.0 4.8 0.00 0.36 0.00 98 1012.8
20260905130101 22 0 0.0 0.0 0.00 0.36 0.00 98 1012.4
20260905124559 22 0 0.0 0.0 0.00 0.36 0.00 98 1012.7